owner,sensor,date,latitude,longitude,vertical_datum,wind_speed,wind_to_direction,wind_speed_of_gust,qcFlag 
LUMCON,ioos:station:LUMCON:103:1,2009-12-01T00:00:00Z,30.1889,-90.1683,1.0,9.3,20.0,9.8,'11111222,11111222,11111222' 
LUMCON,ioos:station:LUMCON:103:1,2009-12-01T01:00:00Z,30.1889,-90.1683,1.0,7.7,30.0,9.8,'11111222,11111222,11111222' 
LUMCON,ioos:station:LUMCON:103:1,2009-12-01T02:00:00Z,30.1889,-90.1683,1.0,7.2,40.0,9.8,'11111222,11111222,11111222' 
LUMCON,ioos:station:LUMCON:103:1,2009-12-01T03:00:00Z,30.1889,-90.1683,1.0,8.2,30.0,9.8,'11111222,11111222,11111222' 
LUMCON,ioos:station:LUMCON:103:1,2009-12-01T04:00:00Z,30.1889,-90.1683,1.0,8.2,40.0,9.8,'11111222,11111222,11111222' 
LUMCON,ioos:station:LUMCON:103:1,2009-12-01T05:00:00Z,30.1889,-90.1683,1.0,8.2,50.0,9.8,'11111222,11111222,11111222' 
LUMCON,ioos:station:LUMCON:103:1,2009-12-01T06:00:00Z,30.1889,-90.1683,1.0,8.8,60.0,9.8,'11111222,11111222,11111222' 
LUMCON,ioos:station:LUMCON:103:1,2009-12-01T07:00:00Z,30.1889,-90.1683,1.0,8.2,50.0,9.8,'11111222,11111222,11111222' 
LUMCON,ioos:station:LUMCON:103:1,2009-12-01T08:00:00Z,30.1889,-90.1683,1.0,8.2,60.0,9.8,'11111222,11111222,11111222' 
LUMCON,ioos:station:LUMCON:103:1,2009-12-01T09:00:00Z,30.1889,-90.1683,1.0,8.2,60.0,9.8,'11111222,11111222,11111222' 
LUMCON,ioos:station:LUMCON:103:1,2009-12-01T10:00:00Z,30.1889,-90.1683,1.0,7.7,60.0,9.8,'11111222,11111222,11111222' 
LUMCON,ioos:station:LUMCON:103:1,2009-12-01T11:00:00Z,30.1889,-90.1683,1.0,8.8,70.0,9.3,'11111222,11111222,11111222' 
LUMCON,ioos:station:LUMCON:103:1,2009-12-01T12:00:00Z,30.1889,-90.1683,1.0,9.3,70.0,9.8,'11111222,11111222,11111222' 
LUMCON,ioos:station:LUMCON:103:1,2009-12-01T13:00:00Z,30.1889,-90.1683,1.0,9.8,80.0,9.8,'11111222,11111222,11111222' 
LUMCON,ioos:station:LUMCON:103:1,2009-12-01T14:00:00Z,30.1889,-90.1683,1.0,8.2,70.0,9.8,'11111222,11111222,11111222' 
LUMCON,ioos:station:LUMCON:103:1,2009-12-01T15:00:00Z,30.1889,-90.1683,1.0,6.7,70.0,9.8,'11111222,11111222,11111222' 
LUMCON,ioos:station:LUMCON:103:1,2009-12-01T16:00:00Z,30.1889,-90.1683,1.0,8.2,60.0,9.8,'11111222,11111222,11111222' 
LUMCON,ioos:station:LUMCON:103:1,2009-12-01T17:00:00Z,30.1889,-90.1683,1.0,9.3,60.0,99.0,'11111222,11111222,11144222' 
LUMCON,ioos:station:LUMCON:103:1,2009-12-01T18:00:00Z,30.1889,-90.1683,1.0,9.3,70.0,99.0,'11111222,11111222,11144222' 
LUMCON,ioos:station:LUMCON:103:1,2009-12-01T19:00:00Z,30.1889,-90.1683,1.0,11.3,60.0,99.0,'11111222,11111222,11144222' 
LUMCON,ioos:station:LUMCON:103:1,2009-12-01T20:00:00Z,30.1889,-90.1683,1.0,10.8,60.0,99.0,'11111222,11111222,11144222' 
LUMCON,ioos:station:LUMCON:103:1,2009-12-01T21:00:00Z,30.1889,-90.1683,1.0,8.2,50.0,9.8,'11111222,11111222,11111222' 
LUMCON,ioos:station:LUMCON:103:1,2009-12-01T22:00:00Z,30.1889,-90.1683,1.0,8.2,60.0,9.8,'11111222,11111222,11111222' 
LUMCON,ioos:station:LUMCON:103:1,2009-12-01T23:00:00Z,30.1889,-90.1683,1.0,7.7,50.0,8.2,'11111222,11111222,11111222' 
LUMCON,ioos:station:LUMCON:103:1,2009-12-02T00:00:00Z,30.1889,-90.1683,1.0,9.8,10.0,99.0,'11111222,11111222,11144222' 
LUMCON,ioos:station:LUMCON:103:1,2009-12-02T01:00:00Z,30.1889,-90.1683,1.0,10.3,30.0,99.0,'11111222,11111222,11144222' 
LUMCON,ioos:station:LUMCON:103:1,2009-12-02T02:00:00Z,30.1889,-90.1683,1.0,11.8,60.0,17.5,'11111222,11111222,11111222' 
LUMCON,ioos:station:LUMCON:103:1,2009-12-02T03:00:00Z,30.1889,-90.1683,1.0,8.8,70.0,9.8,'11111222,11111222,11111222' 
LUMCON,ioos:station:LUMCON:103:1,2009-12-02T04:00:00Z,30.1889,-90.1683,1.0,8.2,80.0,9.8,'11111222,11111222,11111222' 
LUMCON,ioos:station:LUMCON:103:1,2009-12-02T05:00:00Z,30.1889,-90.1683,1.0,7.7,100.0,9.8,'11111222,11111222,11111222' 
LUMCON,ioos:station:LUMCON:103:1,2009-12-02T06:00:00Z,30.1889,-90.1683,1.0,7.2,100.0,9.8,'11111222,11111222,11111222' 
LUMCON,ioos:station:LUMCON:103:1,2009-12-02T07:00:00Z,30.1889,-90.1683,1.0,6.2,100.0,8.2,'11111222,11111222,11111222' 
LUMCON,ioos:station:LUMCON:103:1,2009-12-02T08:00:00Z,30.1889,-90.1683,1.0,5.7,160.0,9.8,'11111222,11111222,11111222' 
LUMCON,ioos:station:LUMCON:103:1,2009-12-02T09:00:00Z,30.1889,-90.1683,1.0,2.6,50.0,6.2,'11111222,11111222,11111222' 
LUMCON,ioos:station:LUMCON:103:1,2009-12-02T10:00:00Z,30.1889,-90.1683,1.0,2.1,10.0,3.1,'11111222,11111222,11111222' 
LUMCON,ioos:station:LUMCON:103:1,2009-12-02T11:00:00Z,30.1889,-90.1683,1.0,3.6,340.0,4.6,'11111222,11111222,11111222' 
LUMCON,ioos:station:LUMCON:103:1,2009-12-02T12:00:00Z,30.1889,-90.1683,1.0,4.1,260.0,8.8,'11111222,11111222,11111222' 
LUMCON,ioos:station:LUMCON:103:1,2009-12-02T13:00:00Z,30.1889,-90.1683,1.0,5.1,270.0,7.7,'11111222,11111222,11111222' 
LUMCON,ioos:station:LUMCON:103:1,2009-12-02T14:00:00Z,30.1889,-90.1683,1.0,8.2,270.0,8.8,'11111222,11111222,11111222' 
LUMCON,ioos:station:LUMCON:103:1,2009-12-02T15:00:00Z,30.1889,-90.1683,1.0,7.2,290.0,9.8,'11111222,11111222,11111222' 
LUMCON,ioos:station:LUMCON:103:1,2009-12-02T16:00:00Z,30.1889,-90.1683,1.0,5.1,270.0,9.8,'11111222,11111222,11111222' 
LUMCON,ioos:station:LUMCON:103:1,2009-12-02T17:00:00Z,30.1889,-90.1683,1.0,4.1,240.0,8.2,'11111222,11111222,11111222' 
LUMCON,ioos:station:LUMCON:103:1,2009-12-02T18:00:00Z,30.1889,-90.1683,1.0,6.2,230.0,8.8,'11111222,11111222,11111222' 
LUMCON,ioos:station:LUMCON:103:1,2009-12-02T19:00:00Z,30.1889,-90.1683,1.0,9.3,260.0,99.0,'11111222,11111222,11144222' 
LUMCON,ioos:station:LUMCON:103:1,2009-12-02T20:00:00Z,30.1889,-90.1683,1.0,10.8,270.0,14.4,'11111222,11111222,11111222' 
LUMCON,ioos:station:LUMCON:103:1,2009-12-02T21:00:00Z,30.1889,-90.1683,1.0,10.3,280.0,99.0,'11111222,11111222,11144222' 
LUMCON,ioos:station:LUMCON:103:1,2009-12-02T22:00:00Z,30.1889,-90.1683,1.0,9.8,280.0,99.0,'11111222,11111222,11144222' 
LUMCON,ioos:station:LUMCON:103:1,2009-12-02T23:00:00Z,30.1889,-90.1683,1.0,8.8,290.0,9.8,'11111222,11111222,11111222' 
LUMCON,ioos:station:LUMCON:103:1,2009-12-03T00:00:00Z,30.1889,-90.1683,1.0,8.2,290.0,9.8,'11111222,11111222,11111222' 
LUMCON,ioos:station:LUMCON:103:1,2009-12-03T01:00:00Z,30.1889,-90.1683,1.0,7.2,300.0,9.8,'11111222,11111222,11111222' 
LUMCON,ioos:station:LUMCON:103:1,2009-12-03T02:00:00Z,30.1889,-90.1683,1.0,6.7,300.0,9.8,'11111222,11111222,11111222' 
LUMCON,ioos:station:LUMCON:103:1,2009-12-03T03:00:00Z,30.1889,-90.1683,1.0,7.7,300.0,9.8,'11111222,11111222,11111222' 
LUMCON,ioos:station:LUMCON:103:1,2009-12-03T04:00:00Z,30.1889,-90.1683,1.0,6.7,300.0,9.3,'11111222,11111222,11111222' 
LUMCON,ioos:station:LUMCON:103:1,2009-12-03T05:00:00Z,30.1889,-90.1683,1.0,6.2,300.0,9.3,'11111222,11111222,11111222' 
LUMCON,ioos:station:LUMCON:103:1,2009-12-03T06:00:00Z,30.1889,-90.1683,1.0,6.2,310.0,8.8,'11111222,11111222,11111222' 
LUMCON,ioos:station:LUMCON:103:1,2009-12-03T07:00:00Z,30.1889,-90.1683,1.0,6.2,310.0,8.8,'11111222,11111222,11111222' 
LUMCON,ioos:station:LUMCON:103:1,2009-12-03T08:00:00Z,30.1889,-90.1683,1.0,5.7,330.0,8.8,'11111222,11111222,11111222' 
LUMCON,ioos:station:LUMCON:103:1,2009-12-03T09:00:00Z,30.1889,-90.1683,1.0,5.7,330.0,8.8,'11111222,11111222,11111222' 
LUMCON,ioos:station:LUMCON:103:1,2009-12-03T10:00:00Z,30.1889,-90.1683,1.0,5.7,320.0,8.8,'11111222,11111222,11111222' 
LUMCON,ioos:station:LUMCON:103:1,2009-12-03T11:00:00Z,30.1889,-90.1683,1.0,5.1,330.0,8.2,'11111222,11111222,11111222' 
LUMCON,ioos:station:LUMCON:103:1,2009-12-03T12:00:00Z,30.1889,-90.1683,1.0,5.1,320.0,8.2,'11111222,11111222,11111222' 
LUMCON,ioos:station:LUMCON:103:1,2009-12-03T13:00:00Z,30.1889,-90.1683,1.0,4.6,320.0,7.7,'11111222,11111222,11111222' 
LUMCON,ioos:station:LUMCON:103:1,2009-12-03T14:00:00Z,30.1889,-90.1683,1.0,5.7,340.0,8.2,'11111222,11111222,11111222' 
LUMCON,ioos:station:LUMCON:103:1,2009-12-03T15:00:00Z,30.1889,-90.1683,1.0,4.6,350.0,6.7,'11111222,11111222,11111222' 
LUMCON,ioos:station:LUMCON:103:1,2009-12-03T16:00:00Z,30.1889,-90.1683,1.0,4.1,350.0,6.7,'11111222,11111222,11111222' 
LUMCON,ioos:station:LUMCON:103:1,2009-12-03T17:00:00Z,30.1889,-90.1683,1.0,2.6,0.0,5.1,'11111222,11111222,11111222' 
LUMCON,ioos:station:LUMCON:103:1,2009-12-03T18:00:00Z,30.1889,-90.1683,1.0,2.6,40.0,5.1,'11111222,11111222,11111222' 
LUMCON,ioos:station:LUMCON:103:1,2009-12-03T19:00:00Z,30.1889,-90.1683,1.0,2.1,20.0,3.6,'11111222,11111222,11111222' 
LUMCON,ioos:station:LUMCON:103:1,2009-12-03T20:00:00Z,30.1889,-90.1683,1.0,1.5,30.0,3.6,'11111222,11111222,11111222' 
LUMCON,ioos:station:LUMCON:103:1,2009-12-03T21:00:00Z,30.1889,-90.1683,1.0,2.1,340.0,5.1,'11111222,11111222,11111222' 
LUMCON,ioos:station:LUMCON:103:1,2009-12-03T22:00:00Z,30.1889,-90.1683,1.0,2.6,330.0,5.1,'11111222,11111222,11111222' 
LUMCON,ioos:station:LUMCON:103:1,2009-12-03T23:00:00Z,30.1889,-90.1683,1.0,3.6,0.0,5.1,'11111222,11111222,11111222' 
LUMCON,ioos:station:LUMCON:103:1,2009-12-04T00:00:00Z,30.1889,-90.1683,1.0,4.6,10.0,7.2,'11111222,11111222,11111222' 
LUMCON,ioos:station:LUMCON:103:1,2009-12-04T01:00:00Z,30.1889,-90.1683,1.0,4.6,30.0,8.2,'11111222,11111222,11111222' 
LUMCON,ioos:station:LUMCON:103:1,2009-12-04T02:00:00Z,30.1889,-90.1683,1.0,3.6,350.0,6.2,'11111222,11111222,11111222' 
LUMCON,ioos:station:LUMCON:103:1,2009-12-04T03:00:00Z,30.1889,-90.1683,1.0,5.1,340.0,7.2,'11111222,11111222,11111222' 
LUMCON,ioos:station:LUMCON:103:1,2009-12-04T04:00:00Z,30.1889,-90.1683,1.0,5.1,20.0,9.3,'11111222,11111222,11111222' 
LUMCON,ioos:station:LUMCON:103:1,2009-12-04T05:00:00Z,30.1889,-90.1683,1.0,5.7,40.0,9.8,'11111222,11111222,11111222' 
LUMCON,ioos:station:LUMCON:103:1,2009-12-04T06:00:00Z,30.1889,-90.1683,1.0,5.7,30.0,9.3,'11111222,11111222,11111222' 
LUMCON,ioos:station:LUMCON:103:1,2009-12-04T07:00:00Z,30.1889,-90.1683,1.0,5.1,30.0,8.2,'11111222,11111222,11111222' 
LUMCON,ioos:station:LUMCON:103:1,2009-12-04T08:00:00Z,30.1889,-90.1683,1.0,5.7,30.0,9.8,'11111222,11111222,11111222' 
LUMCON,ioos:station:LUMCON:103:1,2009-12-04T09:00:00Z,30.1889,-90.1683,1.0,7.2,40.0,9.3,'11111222,11111222,11111222' 
LUMCON,ioos:station:LUMCON:103:1,2009-12-04T10:00:00Z,30.1889,-90.1683,1.0,7.7,40.0,9.3,'11111222,11111222,11111222' 
LUMCON,ioos:station:LUMCON:103:1,2009-12-04T11:00:00Z,30.1889,-90.1683,1.0,7.2,40.0,9.3,'11111222,11111222,11111222' 
LUMCON,ioos:station:LUMCON:103:1,2009-12-04T12:00:00Z,30.1889,-90.1683,1.0,6.7,30.0,9.8,'11111222,11111222,11111222' 
LUMCON,ioos:station:LUMCON:103:1,2009-12-04T13:00:00Z,30.1889,-90.1683,1.0,6.7,0.0,9.8,'11111222,11111222,11111222' 
LUMCON,ioos:station:LUMCON:103:1,2009-12-04T14:00:00Z,30.1889,-90.1683,1.0,6.2,40.0,9.3,'11111222,11111222,11111222' 
LUMCON,ioos:station:LUMCON:103:1,2009-12-04T15:00:00Z,30.1889,-90.1683,1.0,5.7,40.0,9.8,'11111222,11111222,11111222' 
LUMCON,ioos:station:LUMCON:103:1,2009-12-04T16:00:00Z,30.1889,-90.1683,1.0,6.2,50.0,9.8,'11111222,11111222,11111222' 
LUMCON,ioos:station:LUMCON:103:1,2009-12-04T17:00:00Z,30.1889,-90.1683,1.0,9.8,60.0,99.0,'11111222,11111222,11144222' 
LUMCON,ioos:station:LUMCON:103:1,2009-12-04T19:00:00Z,30.1889,-90.1683,1.0,6.2,20.0,9.8,'11111222,11111222,11111222' 
LUMCON,ioos:station:LUMCON:103:1,2009-12-04T20:00:00Z,30.1889,-90.1683,1.0,6.7,20.0,9.3,'11111222,11111222,11111222' 
LUMCON,ioos:station:LUMCON:103:1,2009-12-04T21:00:00Z,30.1889,-90.1683,1.0,7.7,0.0,9.8,'11111222,11111222,11111222' 
LUMCON,ioos:station:LUMCON:103:1,2009-12-04T22:00:00Z,30.1889,-90.1683,1.0,8.2,350.0,9.8,'11111222,11111222,11111222' 
LUMCON,ioos:station:LUMCON:103:1,2009-12-04T23:00:00Z,30.1889,-90.1683,1.0,7.2,360.0,9.8,'11111222,11144222,11111222' 
LUMCON,ioos:station:LUMCON:103:1,2009-12-05T00:00:00Z,30.1889,-90.1683,1.0,9.3,340.0,9.3,'11111222,11111222,11111222' 
LUMCON,ioos:station:LUMCON:103:1,2009-12-05T01:00:00Z,30.1889,-90.1683,1.0,11.3,350.0,99.0,'11111222,11111222,11144222' 
LUMCON,ioos:station:LUMCON:103:1,2009-12-05T02:00:00Z,30.1889,-90.1683,1.0,10.3,350.0,99.0,'11111222,11111222,11144222' 
LUMCON,ioos:station:LUMCON:103:1,2009-12-05T03:00:00Z,30.1889,-90.1683,1.0,8.2,0.0,9.8,'11111222,11111222,11111222' 
LUMCON,ioos:station:LUMCON:103:1,2009-12-05T04:00:00Z,30.1889,-90.1683,1.0,7.7,350.0,9.3,'11111222,11111222,11111222' 
LUMCON,ioos:station:LUMCON:103:1,2009-12-05T05:00:00Z,30.1889,-90.1683,1.0,7.7,10.0,9.8,'11111222,11111222,11111222' 
LUMCON,ioos:station:LUMCON:103:1,2009-12-05T06:00:00Z,30.1889,-90.1683,1.0,8.2,10.0,9.3,'11111222,11111222,11111222' 
LUMCON,ioos:station:LUMCON:103:1,2009-12-05T07:00:00Z,30.1889,-90.1683,1.0,7.7,0.0,8.8,'11111222,11111222,11111222' 
LUMCON,ioos:station:LUMCON:103:1,2009-12-05T08:00:00Z,30.1889,-90.1683,1.0,8.8,350.0,9.8,'11111222,11111222,11111222' 
LUMCON,ioos:station:LUMCON:103:1,2009-12-05T09:00:00Z,30.1889,-90.1683,1.0,8.2,350.0,9.8,'11111222,11111222,11111222' 
LUMCON,ioos:station:LUMCON:103:1,2009-12-05T10:00:00Z,30.1889,-90.1683,1.0,7.2,350.0,9.8,'11111222,11111222,11111222' 
LUMCON,ioos:station:LUMCON:103:1,2009-12-05T11:00:00Z,30.1889,-90.1683,1.0,7.2,360.0,9.8,'11111222,11144222,11111222' 
LUMCON,ioos:station:LUMCON:103:1,2009-12-05T12:00:00Z,30.1889,-90.1683,1.0,7.7,360.0,9.8,'11111222,11144222,11111222' 
LUMCON,ioos:station:LUMCON:103:1,2009-12-05T13:00:00Z,30.1889,-90.1683,1.0,5.7,360.0,8.8,'11111222,11144222,11111222' 
LUMCON,ioos:station:LUMCON:103:1,2009-12-05T14:00:00Z,30.1889,-90.1683,1.0,5.7,350.0,8.2,'11111222,11111222,11111222' 
LUMCON,ioos:station:LUMCON:103:1,2009-12-05T15:00:00Z,30.1889,-90.1683,1.0,6.2,10.0,9.3,'11111222,11111222,11111222' 
LUMCON,ioos:station:LUMCON:103:1,2009-12-05T16:00:00Z,30.1889,-90.1683,1.0,5.7,10.0,7.2,'11111222,11111222,11111222' 
LUMCON,ioos:station:LUMCON:103:1,2009-12-05T17:00:00Z,30.1889,-90.1683,1.0,4.1,10.0,6.2,'11111222,11111222,11111222' 
LUMCON,ioos:station:LUMCON:103:1,2009-12-05T18:00:00Z,30.1889,-90.1683,1.0,4.6,0.0,6.7,'11111222,11111222,11111222' 
LUMCON,ioos:station:LUMCON:103:1,2009-12-05T19:00:00Z,30.1889,-90.1683,1.0,4.1,360.0,6.2,'11111222,11144222,11111222' 
LUMCON,ioos:station:LUMCON:103:1,2009-12-05T20:00:00Z,30.1889,-90.1683,1.0,3.6,10.0,6.2,'11111222,11111222,11111222' 
LUMCON,ioos:station:LUMCON:103:1,2009-12-05T21:00:00Z,30.1889,-90.1683,1.0,2.1,30.0,4.6,'11111222,11111222,11111222' 
LUMCON,ioos:station:LUMCON:103:1,2009-12-05T22:00:00Z,30.1889,-90.1683,1.0,2.1,10.0,4.1,'11111222,11111222,11111222' 
LUMCON,ioos:station:LUMCON:103:1,2009-12-05T23:00:00Z,30.1889,-90.1683,1.0,2.1,60.0,4.6,'11111222,11111222,11111222' 
LUMCON,ioos:station:LUMCON:103:1,2009-12-06T00:00:00Z,30.1889,-90.1683,1.0,2.1,50.0,3.6,'11111222,11111222,11111222' 
LUMCON,ioos:station:LUMCON:103:1,2009-12-06T01:00:00Z,30.1889,-90.1683,1.0,3.6,40.0,5.7,'11111222,11111222,11111222' 
LUMCON,ioos:station:LUMCON:103:1,2009-12-06T02:00:00Z,30.1889,-90.1683,1.0,3.6,40.0,6.2,'11111222,11111222,11111222' 
LUMCON,ioos:station:LUMCON:103:1,2009-12-06T03:00:00Z,30.1889,-90.1683,1.0,4.1,40.0,6.7,'11111222,11111222,11111222' 
LUMCON,ioos:station:LUMCON:103:1,2009-12-06T04:00:00Z,30.1889,-90.1683,1.0,4.1,40.0,6.7,'11111222,11111222,11111222' 
LUMCON,ioos:station:LUMCON:103:1,2009-12-06T05:00:00Z,30.1889,-90.1683,1.0,3.6,40.0,6.2,'11111222,11111222,11111222' 
LUMCON,ioos:station:LUMCON:103:1,2009-12-06T06:00:00Z,30.1889,-90.1683,1.0,4.1,40.0,6.2,'11111222,11111222,11111222' 
LUMCON,ioos:station:LUMCON:103:1,2009-12-06T07:00:00Z,30.1889,-90.1683,1.0,3.6,50.0,5.7,'11111222,11111222,11111222' 
LUMCON,ioos:station:LUMCON:103:1,2009-12-06T08:00:00Z,30.1889,-90.1683,1.0,4.1,60.0,6.7,'11111222,11111222,11111222' 
LUMCON,ioos:station:LUMCON:103:1,2009-12-06T09:00:00Z,30.1889,-90.1683,1.0,4.6,60.0,6.2,'11111222,11111222,11111222' 
LUMCON,ioos:station:LUMCON:103:1,2009-12-06T10:00:00Z,30.1889,-90.1683,1.0,5.7,60.0,7.7,'11111222,11111222,11111222' 
LUMCON,ioos:station:LUMCON:103:1,2009-12-06T11:00:00Z,30.1889,-90.1683,1.0,6.2,70.0,9.8,'11111222,11111222,11111222' 
LUMCON,ioos:station:LUMCON:103:1,2009-12-06T12:00:00Z,30.1889,-90.1683,1.0,6.7,70.0,9.8,'11111222,11111222,11111222' 
LUMCON,ioos:station:LUMCON:103:1,2009-12-06T13:00:00Z,30.1889,-90.1683,1.0,4.6,50.0,8.2,'11111222,11111222,11111222' 
LUMCON,ioos:station:LUMCON:103:1,2009-12-06T14:00:00Z,30.1889,-90.1683,1.0,4.6,60.0,8.2,'11111222,11111222,11111222' 
LUMCON,ioos:station:LUMCON:103:1,2009-12-06T15:00:00Z,30.1889,-90.1683,1.0,4.6,40.0,6.2,'11111222,11111222,11111222' 
LUMCON,ioos:station:LUMCON:103:1,2009-12-06T16:00:00Z,30.1889,-90.1683,1.0,5.7,50.0,7.7,'11111222,11111222,11111222' 
LUMCON,ioos:station:LUMCON:103:1,2009-12-06T17:00:00Z,30.1889,-90.1683,1.0,5.7,60.0,8.2,'11111222,11111222,11111222' 
LUMCON,ioos:station:LUMCON:103:1,2009-12-06T18:00:00Z,30.1889,-90.1683,1.0,5.7,60.0,9.3,'11111222,11111222,11111222' 
LUMCON,ioos:station:LUMCON:103:1,2009-12-06T19:00:00Z,30.1889,-90.1683,1.0,5.7,60.0,9.3,'11111222,11111222,11111222' 
LUMCON,ioos:station:LUMCON:103:1,2009-12-06T20:00:00Z,30.1889,-90.1683,1.0,5.7,70.0,8.8,'11111222,11111222,11111222' 
LUMCON,ioos:station:LUMCON:103:1,2009-12-06T21:00:00Z,30.1889,-90.1683,1.0,5.1,100.0,8.8,'11111222,11111222,11111222' 
LUMCON,ioos:station:LUMCON:103:1,2009-12-06T22:00:00Z,30.1889,-90.1683,1.0,6.2,90.0,9.3,'11111222,11111222,11111222' 
LUMCON,ioos:station:LUMCON:103:1,2009-12-06T23:00:00Z,30.1889,-90.1683,1.0,6.7,90.0,9.8,'11111222,11111222,11111222' 
LUMCON,ioos:station:LUMCON:103:1,2009-12-07T00:00:00Z,30.1889,-90.1683,1.0,6.7,90.0,9.8,'11111222,11111222,11111222' 
LUMCON,ioos:station:LUMCON:103:1,2009-12-07T01:00:00Z,30.1889,-90.1683,1.0,6.2,90.0,9.8,'11111222,11111222,11111222' 
LUMCON,ioos:station:LUMCON:103:1,2009-12-07T02:00:00Z,30.1889,-90.1683,1.0,6.7,90.0,9.8,'11111222,11111222,11111222' 
LUMCON,ioos:station:LUMCON:103:1,2009-12-07T03:00:00Z,30.1889,-90.1683,1.0,6.7,100.0,9.3,'11111222,11111222,11111222' 
LUMCON,ioos:station:LUMCON:103:1,2009-12-07T04:00:00Z,30.1889,-90.1683,1.0,6.2,100.0,9.8,'11111222,11111222,11111222' 
LUMCON,ioos:station:LUMCON:103:1,2009-12-07T05:00:00Z,30.1889,-90.1683,1.0,5.7,100.0,8.8,'11111222,11111222,11111222' 
LUMCON,ioos:station:LUMCON:103:1,2009-12-07T06:00:00Z,30.1889,-90.1683,1.0,5.1,110.0,7.7,'11111222,11111222,11111222' 
LUMCON,ioos:station:LUMCON:103:1,2009-12-07T07:00:00Z,30.1889,-90.1683,1.0,4.1,110.0,5.7,'11111222,11111222,11111222' 
LUMCON,ioos:station:LUMCON:103:1,2009-12-07T08:00:00Z,30.1889,-90.1683,1.0,4.1,90.0,6.2,'11111222,11111222,11111222' 
LUMCON,ioos:station:LUMCON:103:1,2009-12-07T09:00:00Z,30.1889,-90.1683,1.0,4.1,90.0,6.7,'11111222,11111222,11111222' 
LUMCON,ioos:station:LUMCON:103:1,2009-12-07T10:00:00Z,30.1889,-90.1683,1.0,4.1,80.0,7.2,'11111222,11111222,11111222' 
LUMCON,ioos:station:LUMCON:103:1,2009-12-07T11:00:00Z,30.1889,-90.1683,1.0,4.6,100.0,7.7,'11111222,11111222,11111222' 
LUMCON,ioos:station:LUMCON:103:1,2009-12-07T12:00:00Z,30.1889,-90.1683,1.0,3.6,120.0,6.7,'11111222,11111222,11111222' 
LUMCON,ioos:station:LUMCON:103:1,2009-12-07T13:00:00Z,30.1889,-90.1683,1.0,3.6,120.0,5.7,'11111222,11111222,11111222' 
LUMCON,ioos:station:LUMCON:103:1,2009-12-07T14:00:00Z,30.1889,-90.1683,1.0,6.7,100.0,7.2,'11111222,11111222,11111222' 
LUMCON,ioos:station:LUMCON:103:1,2009-12-07T15:00:00Z,30.1889,-90.1683,1.0,6.7,100.0,8.2,'11111222,11111222,11111222' 
LUMCON,ioos:station:LUMCON:103:1,2009-12-07T16:00:00Z,30.1889,-90.1683,1.0,5.7,110.0,7.2,'11111222,11111222,11111222' 
LUMCON,ioos:station:LUMCON:103:1,2009-12-07T17:00:00Z,30.1889,-90.1683,1.0,3.6,90.0,4.6,'11111222,11111222,11111222' 
LUMCON,ioos:station:LUMCON:103:1,2009-12-07T18:00:00Z,30.1889,-90.1683,1.0,5.7,130.0,8.8,'11111222,11111222,11111222' 
LUMCON,ioos:station:LUMCON:103:1,2009-12-07T19:00:00Z,30.1889,-90.1683,1.0,5.1,100.0,5.7,'11111222,11111222,11111222' 
LUMCON,ioos:station:LUMCON:103:1,2009-12-07T20:00:00Z,30.1889,-90.1683,1.0,4.1,130.0,5.1,'11111222,11111222,11111222' 
LUMCON,ioos:station:LUMCON:103:1,2009-12-07T21:00:00Z,30.1889,-90.1683,1.0,4.1,110.0,6.2,'11111222,11111222,11111222' 
LUMCON,ioos:station:LUMCON:103:1,2009-12-07T22:00:00Z,30.1889,-90.1683,1.0,5.1,110.0,8.8,'11111222,11111222,11111222' 
LUMCON,ioos:station:LUMCON:103:1,2009-12-07T23:00:00Z,30.1889,-90.1683,1.0,5.1,110.0,8.2,'11111222,11111222,11111222' 
LUMCON,ioos:station:LUMCON:103:1,2009-12-08T00:00:00Z,30.1889,-90.1683,1.0,5.1,100.0,7.7,'11111222,11111222,11111222' 
LUMCON,ioos:station:LUMCON:103:1,2009-12-08T01:00:00Z,30.1889,-90.1683,1.0,5.7,110.0,7.7,'11111222,11111222,11111222' 
LUMCON,ioos:station:LUMCON:103:1,2009-12-08T02:00:00Z,30.1889,-90.1683,1.0,6.2,110.0,8.8,'11111222,11111222,11111222' 
LUMCON,ioos:station:LUMCON:103:1,2009-12-08T03:00:00Z,30.1889,-90.1683,1.0,7.7,120.0,9.8,'11111222,11111222,11111222' 
LUMCON,ioos:station:LUMCON:103:1,2009-12-08T04:00:00Z,30.1889,-90.1683,1.0,7.7,120.0,9.8,'11111222,11111222,11111222' 
LUMCON,ioos:station:LUMCON:103:1,2009-12-08T05:00:00Z,30.1889,-90.1683,1.0,8.2,120.0,9.8,'11111222,11111222,11111222' 
LUMCON,ioos:station:LUMCON:103:1,2009-12-08T06:00:00Z,30.1889,-90.1683,1.0,8.8,120.0,9.8,'11111222,11111222,11111222' 
LUMCON,ioos:station:LUMCON:103:1,2009-12-08T07:00:00Z,30.1889,-90.1683,1.0,8.2,110.0,9.8,'11111222,11111222,11111222' 
LUMCON,ioos:station:LUMCON:103:1,2009-12-08T08:00:00Z,30.1889,-90.1683,1.0,11.3,140.0,15.4,'11111222,11111222,11111222' 
LUMCON,ioos:station:LUMCON:103:1,2009-12-08T09:00:00Z,30.1889,-90.1683,1.0,7.7,150.0,9.8,'11111222,11111222,11111222' 
LUMCON,ioos:station:LUMCON:103:1,2009-12-08T10:00:00Z,30.1889,-90.1683,1.0,7.2,150.0,9.8,'11111222,11111222,11111222' 
LUMCON,ioos:station:LUMCON:103:1,2009-12-08T11:00:00Z,30.1889,-90.1683,1.0,6.7,150.0,9.3,'11111222,11111222,11111222' 
LUMCON,ioos:station:LUMCON:103:1,2009-12-08T12:00:00Z,30.1889,-90.1683,1.0,7.2,150.0,9.8,'11111222,11111222,11111222' 
LUMCON,ioos:station:LUMCON:103:1,2009-12-08T13:00:00Z,30.1889,-90.1683,1.0,6.7,130.0,8.8,'11111222,11111222,11111222' 
LUMCON,ioos:station:LUMCON:103:1,2009-12-08T14:00:00Z,30.1889,-90.1683,1.0,4.6,130.0,8.2,'11111222,11111222,11111222' 
LUMCON,ioos:station:LUMCON:103:1,2009-12-08T15:00:00Z,30.1889,-90.1683,1.0,5.1,130.0,7.7,'11111222,11111222,11111222' 
LUMCON,ioos:station:LUMCON:103:1,2009-12-08T16:00:00Z,30.1889,-90.1683,1.0,5.7,150.0,8.2,'11111222,11111222,11111222' 
LUMCON,ioos:station:LUMCON:103:1,2009-12-09T07:00:00Z,30.1889,-90.1683,1.0,4.1,220.0,7.2,'11111222,11111222,11111222' 
LUMCON,ioos:station:LUMCON:103:1,2009-12-09T08:00:00Z,30.1889,-90.1683,1.0,3.6,220.0,4.6,'11111222,11111222,11111222' 
LUMCON,ioos:station:LUMCON:103:1,2009-12-09T09:00:00Z,30.1889,-90.1683,1.0,2.6,220.0,7.2,'11111222,11111222,11111222' 
LUMCON,ioos:station:LUMCON:103:1,2009-12-09T11:00:00Z,30.1889,-90.1683,1.0,3.1,230.0,4.1,'11111222,11111222,11111222' 
LUMCON,ioos:station:LUMCON:103:1,2009-12-09T12:00:00Z,30.1889,-90.1683,1.0,3.6,240.0,4.6,'11111222,11111222,11111222' 
LUMCON,ioos:station:LUMCON:103:1,2009-12-09T13:00:00Z,30.1889,-90.1683,1.0,4.6,270.0,8.8,'11111222,11111222,11111222' 
LUMCON,ioos:station:LUMCON:103:1,2009-12-09T14:00:00Z,30.1889,-90.1683,1.0,3.6,290.0,5.1,'11111222,11111222,11111222' 
LUMCON,ioos:station:LUMCON:103:1,2009-12-09T15:00:00Z,30.1889,-90.1683,1.0,3.6,290.0,7.2,'11111222,11111222,11111222' 
LUMCON,ioos:station:LUMCON:103:1,2009-12-09T16:00:00Z,30.1889,-90.1683,1.0,9.3,60.0,9.8,'11111222,11111222,11111222' 
LUMCON,ioos:station:LUMCON:103:1,2009-12-09T17:00:00Z,30.1889,-90.1683,1.0,8.2,310.0,9.8,'11111222,11111222,11111222' 
LUMCON,ioos:station:LUMCON:103:1,2009-12-09T18:00:00Z,30.1889,-90.1683,1.0,7.2,330.0,9.8,'11111222,11111222,11111222' 
LUMCON,ioos:station:LUMCON:103:1,2009-12-09T19:00:00Z,30.1889,-90.1683,1.0,7.7,340.0,9.8,'11111222,11111222,11111222' 
LUMCON,ioos:station:LUMCON:103:1,2009-12-09T20:00:00Z,30.1889,-90.1683,1.0,6.7,320.0,9.3,'11111222,11111222,11111222' 
LUMCON,ioos:station:LUMCON:103:1,2009-12-09T21:00:00Z,30.1889,-90.1683,1.0,6.2,360.0,9.3,'11111222,11144222,11111222' 
LUMCON,ioos:station:LUMCON:103:1,2009-12-09T22:00:00Z,30.1889,-90.1683,1.0,6.2,330.0,9.3,'11111222,11111222,11111222' 
LUMCON,ioos:station:LUMCON:103:1,2009-12-09T23:00:00Z,30.1889,-90.1683,1.0,5.1,330.0,7.7,'11111222,11111222,11111222' 
LUMCON,ioos:station:LUMCON:103:1,2009-12-10T00:00:00Z,30.1889,-90.1683,1.0,4.6,330.0,7.2,'11111222,11111222,11111222' 